Showing default

TELKOM 3S, 41944

Orbit data source: Space-Track

TELKOM 3S, 41944 is a payload satellite owned by Telkom (ID) in GEO that was launched on Tue, 14 Feb 2017 UTC via an ARIANE 5ECA launch vehicle from the French Guiana (FRGUI). Payload-class satellites include a variety of spacecraft equipped with specific instruments for various scientific and technological missions. These include communications satellites like Starlink; space stations such as the ISS; scientific satellites like the Hubble; Earth observation satellites from companies like Planet Labs, Umbra, and HawkEye 360; GPS; miniature CubeSats for education and research; and military/defense satellites.

Not visible in the next 10 days
Identifier
41944, 2017-007A
Orbit
GEO
Country
Flag of UnknownUnknown / INDO
Related business
Manufacturer
Thales Alenia
Mission
Operational Commercial Communications
Bus & Motor
SPACEBUS 4000B2, S400
Mass
3,500 kg wet, ~2,000 kg dry
Launch date (UTC)
2017-02-14 (9 years ago)
Launch vehicle
ARIANE 5ECA
Launch site
French Guiana (FRGUI)
Object type
Payload
Rocket body
Debris
Shape & HBR
Box + 2 Pan, 18.5 m
Radar Cross Section
31.794 m², Large (>1 m²)

Expand to show TLE details & history
Last TLE update: 8 hours ago

TLE from 8 hours ago
0 TELKOM 3S
1 41944U 17007A   25259.60310024  .00000000  00000-0  00000-0 0  9996
2 41944   0.0238 142.6139 0002532  52.7097 135.5915  1.00268036 31396
Epoch: 2025-09-16T14:28Z
TLE epoch observation values (Epoch: 2025-09-16T14:28:27.86Z)
Latitude
-0.00324°
Longitude
118.02904°
Altitude
35,794.811 km
Speed
3.074 km/s
True Right ascension
22h 03m 44s
True Declination
0° 00' 12"
Sunlit
Object was in daylight at epoch
Visualization orbit readout
Latitude
Unknown
Longitude
Unknown
Altitude
Unknown
Speed
Unknown
Apparent Right ascension
Unknown
Apparent Declination
Unknown
Sunlit
N/A
Visualization observer readout
Local Sidereal Time
15:19:57
Azimuth
Unknown
Elevation
Unknown
Doppler factor
Unknown
Orbital elements
Apogee altitude
35,799.393 km
Perigee altitude
35,778.04 km
Semi-major axis
42,166.853 km
Eccentricity
0.00025
Inclination
0.0238°
RAAN
142.6139°
Arg. of periapsis
52.7097°
True anomaly
135.6118°
Mean anomaly
135.5915°
Eccentric anomaly
135.60165°
Mean motion
0.25066 °/min
Orbital period
1,436.2 mins
BSTAR
0
Loading maneuver chart data...
Computing Atmospheric mass density...
Loading historical data...
Loading historical data...
Loading historical data...
Loading historical data...
Loading historical data...
Loading historical data...
Loading historical data...
Other satellites on launch #7 in the year 2017 (2017-02-14 UTC)

Documentation

Showing up to 5 results
|